CAPE
0 0 0 0 0 0 0 0 0 0 0 0 0 0 0 0 0 0 0 38 364 967 1133 1125 1052 904 876 1032 1088 985 913 777 672 429 27 4 277 462 635 555 400 698 574 56 5 141 174 157 182
0 0 0 0 0 0 0 0 0 0 0 0 0 0 0 0 0 0 70 47 342 972 1304 1205 1055 962 837 931 942 955 1102 1027 919 541 370 33 4 156 326 372 837 655 457 144 25 36 77 110 132
0 0 0 0 0 0 0 0 0 0 0 0 0 0 0 0 0 0 0 11 559 1070 1350 1230 1027 964 823 832 875 906 927 984 1033 915 529 318 132 38 156 256 559 551 488 241 133 18 0 68 146
0 0 0 0 0 0 0 0 0 0 0 0 0 0 0 0 0 0 0 136 688 1098 1416 1296 901 801 866 638 761 835 930 912 982 820 735 568 381 249 267 191 156 549 282 94 20 6 8 45 105
0 0 0 0 0 0 0 0 0 0 0 0 0 0 0 0 0 0 0 0 252 584 1124 1189 691 383 609 724 752 725 954 982 953 824 885 746 574 472 391 310 51 144 202 112 20 0 0 0 5
0 0 0 0 0 0 0 0 0 0 0 0 0 0 0 0 0 0 0 0 0 0 66 433 693 640 351 333 649 692 723 791 804 754 808 880 901 720 577 512 235 167 245 140 40 0 0 0 0
0 0 0 0 0 0 0 0 0 0 0 0 0 0 0 0 0 0 0 0 0 0 0 0 25 615 535 430 304 443 561 555 509 551 589 613 676 769 665 455 386 350 307 228 79 6 0 0 0
0 0 0 0 0 0 0 0 0 0 0 0 0 0 0 0 0 0 0 0 0 0 0 0 0 0 0 251 367 362 342 469 459 520 661 627 524 460 489 568 464 437 346 286 188 57 9 0 0
0 0 0 0 0 0 0 0 0 0 0 0 0 0 0 0 0 0 0 0 0 0 0 0 0 0 0 0 0 297 413 389 448 453 526 618 507 363 323 284 447 453 433 312 248 136 23 0 0
0 0 0 0 0 0 0 0 0 0 0 0 0 0 0 0 0 0 0 0 0 0 0 0 0 0 0 0 0 0 0 75 246 406 458 439 415 293 211 120 132 243 327 464 389 242 40 2 0
0 0 0 0 0 0 0 0 0 0 0 0 0 0 0 0 0 0 0 0 0 0 0 0 0 0 0 0 0 0 0 0 0 108 364 330 331 246 165 83 35 51 81 193 485 441 100 20 0
0 0 0 0 0 0 0 0 0 0 0 0 0 0 0 0 0 0 0 0 0 0 0 0 0 0 0 0 0 0 0 0 0 0 0 214 168 136 107 74 39 0 31 85 242 339 137 45 9
0 0 0 0 0 0 0 0 0 0 0 0 0 0 0 0 0 0 0 0 0 0 0 0 0 0 0 0 0 0 0 0 0 0 0 0 30 121 113 88 17 17 22 58 109 184 157 70 27
0 0 0 0 0 0 0 0 0 0 0 0 0 0 0 0 0 0 0 0 0 0 0 0 0 0 0 0 0 0 0 0 0 0 0 0 0 1 47 73 49 2 11 44 113 159 162 128 57
0 0 0 0 0 0 0 0 0 0 0 0 0 0 0 0 0 0 0 0 0 0 0 0 0 0 0 0 0 0 0 0 0 0 0 0 0 0 0 21 41 48 74 103 111 136 164 147 101
0 0 0 0 0 0 0 0 0 0 0 0 0 0 0 0 0 0 0 0 0 0 0 0 0 0 0 0 0 0 0 0 0 0 0 0 0 0 0 0 0 21 85 144 154 166 164 160 116
0 0 0 0 0 0 0 0 0 0 0 0 0 0 0 0 0 0 0 0 0 0 0 0 0 0 0 0 0 0 0 0 0 0 0 0 0 0 0 0 0 4 91 102 169 204 143 109 74
0 0 0 0 0 0 0 0 0 0 0 0 0 0 0 0 0 0 0 0 0 0 0 0 0 0 0 0 0 0 0 0 0 0 0 0 0 0 0 0 0 2 125 237 142 248 186 88 81
0 0 0 0 0 0 0 0 0 0 0 0 0 0 0 0 0 0 0 0 0 0 0 0 0 0 0 0 0 0 0 0 0 0 0 0 0 0 0 0 0 0 0 47 155 190 174 95 64
0 0 0 0 0 0 0 0 0 0 0 0 0 0 0 0 0 0 0 0 0 0 0 0 0 0 0 0 0 0 0 0 0 0 0 0 0 0 0 0 0 0 0 0 0 150 162 128 162
0 0 0 0 0 0 0 0 0 0 0 0 0 0 0 0 0 0 0 0 0 0 0 0 0 0 0 0 2 0 0 0 0 0 0 0 0 0 0 0 0 0 0 0 0 0 155 114 122
0 0 0 0 0 0 0 0 0 0 0 0 0 0 0 0 0 0 0 0 0 0 0 0 0 0 0 1 1 2 1 0 0 0 0 0 0 0 0 0 0 0 4 31 4 6 42 190 139
0 0 0 0 0 0 0 0 0 0 0 0 0 0 0 0 0 0 0 0 0 0 0 0 0 0 0 0 0 1 3 1 0 0 0 0 0 0 0 0 0 30 17 0 0 0 61 206 159
0 0 0 0 0 0 0 0 0 0 0 0 0 0 0 0 0 0 0 0 0 0 0 0 0 0 0 0 0 1 4 1 0 0 0 0 0 0 0 0 16 61 26 0 0 16 87 153 125
0 0 0 0 0 0 0 0 0 0 0 0 0 0 0 0 0 0 0 0 0 0 0 0 0 0 0 0 0 1 1 0 1 0 0 0 0 0 0 0 2 7 2 0 0 22 103 151 141
0 0 0 0 0 0 0 0 0 0 0 0 0 0 0 0 0 0 0 0 0 0 0 0 0 0 0 0 0 1 1 0 1 1 3 1 0 0 3 1 10 43 0 1 29 50 72 140 136
0 0 0 0 0 0 0 0 0 0 0 0 0 0 0 0 0 0 0 0 0 0 0 0 0 0 0 0 0 0 0 0 1 0 1 3 2 2 1 10 38 35 90 152 166 98 78 54 105
0 0 0 0 0 0 0 0 0 0 0 0 0 0 0 0 0 0 0 0 0 0 0 0 0 0 0 0 0 0 0 0 1 0 1 1 1 0 0 1 0 0 0 1 11 38 20 56 88
0 0 0 0 0 0 0 0 0 0 0 0 0 0 0 0 0 0 0 0 0 0 0 0 0 0 0 0 0 0 0 0 0 0 1 0 2 1 0 0 0 1 0 0 0 0 0 0 0
0 0 0 0 0 0 0 0 0 0 0 0 0 0 0 0 0 0 0 0 0 0 0 0 0 0 0 0 0 0 0 0 0 0 0 0 0 0 0 0 0 0 0 0 0 0 0 0 0
CIN
0 0 0 0 0 0 0 0 0 0 0 0 0 0 0 0 0 0 0 -284 -125 -41 -25 -15 -15 -15 -15 -7 -6 -6 -7 -13 -16 -42 -226 -39 -61 -8 0 -1 -16 0 -4 -156 0 -125 -123 -135 -131
0 0 0 0 0 0 0 0 0 0 0 0 0 0 0 0 0 0 -289 -312 -124 -45 -19 -23 -18 -15 -20 -14 -11 -6 -2 -1 -1 -34 -57 -236 -63 -104 -23 -10 -1 -2 -13 -107 -67 -178 -160 -141 -117
0 0 0 0 0 0 0 0 0 0 0 0 0 0 0 0 0 0 0 -256 -72 -27 -15 -26 -22 -13 -15 -17 -20 -15 -7 -3 -2 0 -27 -79 -173 -229 -112 -44 -3 -1 -3 -54 -110 -203 0 -150 -101
0 0 0 0 0 0 0 0 0 0 0 0 0 0 0 0 0 0 0 -214 -38 -25 -22 -16 -21 -21 -11 -15 -18 -15 -12 -7 -4 -4 -1 -14 -49 -97 -77 -111 -116 -5 -32 -109 -191 -267 -250 -158 -114
0 0 0 0 0 0 0 0 0 0 0 0 0 0 0 0 0 0 0 0 -120 -47 -36 -17 -22 -36 -22 -14 -12 -18 -8 -5 -4 -5 -1 -2 -10 -11 -21 -52 -223 -129 -80 -118 -201 0 0 0 -169
0 0 0 0 0 0 0 0 0 0 0 0 0 0 0 0 0 0 0 0 0 0 -70 -63 -31 -22 -26 -34 -10 -8 -10 -9 -6 -6 -3 -1 0 0 -2 -2 -74 -114 -70 -110 -183 0 0 0 0
0 0 0 0 0 0 0 0 0 0 0 0 0 0 0 0 0 0 0 0 0 0 0 0 -33 -24 -18 -13 -22 -15 -8 -8 -10 -9 -9 -7 -4 -1 -2 -12 -13 -11 -23 -59 -141 -128 0 0 0
0 0 0 0 0 0 0 0 0 0 0 0 0 0 0 0 0 0 0 0 0 0 0 0 0 0 0 -44 -21 -9 -11 -9 -8 -6 -4 -6 -9 -14 -12 -4 -6 -6 -14 -30 -71 -162 -134 0 0
0 0 0 0 0 0 0 0 0 0 0 0 0 0 0 0 0 0 0 0 0 0 0 0 0 0 0 0 0 -37 -15 -12 -8 -7 -8 -6 -10 -20 -30 -33 -12 -7 -5 -15 -30 -94 -84 -60 0
0 0 0 0 0 0 0 0 0 0 0 0 0 0 0 0 0 0 0 0 0 0 0 0 0 0 0 0 0 0 0 -95 -27 -17 -15 -16 -15 -23 -36 -81 -76 -24 -14 -2 -4 -24 -164 -37 0
0 0 0 0 0 0 0 0 0 0 0 0 0 0 0 0 0 0 0 0 0 0 0 0 0 0 0 0 0 0 0 0 -4 -72 -29 -24 -22 -27 -30 -67 -74 -129 -87 -37 0 0 -84 -106 0
0 0 0 0 0 0 0 0 0 0 0 0 0 0 0 0 0 0 0 0 0 0 0 0 0 0 0 0 0 0 0 0 0 0 -47 -24 -28 -26 -37 -62 -46 0 -51 -70 -7 0 -44 -68 -132
0 0 0 0 0 0 0 0 0 0 0 0 0 0 0 0 0 0 0 0 0 0 0 0 0 0 0 0 0 0 0 0 0 0 0 0 -42 -28 -53 -52 -20 -47 -64 -50 -39 -5 -9 -42 -88
0 0 0 0 0 0 0 0 0 0 0 0 0 0 0 0 0 0 0 0 0 0 0 0 0 0 0 0 0 0 0 0 0 0 0 0 0 -13 -38 -33 -42 -45 -64 -62 -41 -23 -17 -28 -46
0 0 0 0 0 0 0 0 0 0 0 0 0 0 0 0 0 0 0 0 0 0 0 0 0 0 0 0 0 0 0 0 0 0 0 0 0 0 -3 -70 -46 -47 -28 -30 -31 -31 -20 -26 -45
0 0 0 0 0 0 0 0 0 0 0 0 0 0 0 0 0 0 0 0 0 0 0 0 0 0 0 0 0 0 0 0 0 0 0 0 0 0 0 0 -25 -57 -22 -10 -9 -22 -23 -36 -42
0 0 0 0 0 0 0 0 0 0 0 0 0 0 0 0 0 0 0 0 0 0 0 0 0 0 0 0 0 0 0 0 0 0 0 0 0 0 0 0 0 -32 -15 -13 -13 -15 -20 -30 -54
0 0 0 0 0 0 0 0 0 0 0 0 0 0 0 0 0 0 0 0 0 0 0 0 0 0 0 0 0 0 0 0 0 0 0 0 0 0 0 0 0 -15 -9 -1 -15 -9 -21 -32 -45
0 0 0 0 0 0 0 0 0 0 0 0 0 0 0 0 0 0 0 0 0 0 0 0 0 0 0 0 0 0 0 0 0 0 0 0 0 0 0 0 0 0 0 -35 -6 -5 -4 -13 -46
0 0 0 0 0 0 0 0 0 0 0 0 0 0 0 0 0 0 0 0 0 0 0 0 0 0 0 0 -1 0 0 0 0 0 0 0 0 0 0 0 0 0 0 0 0 -8 -4 -21 -27
0 0 0 0 0 0 0 0 0 0 0 0 0 0 0 0 0 0 0 0 0 0 0 0 0 0 0 0 0 0 0 0 0 0 0 0 0 0 0 0 0 0 0 0 0 0 -3 -13 -29
0 0 0 0 0 0 0 0 0 0 0 0 0 0 0 0 0 0 0 0 0 0 0 0 0 0 0 0 0 0 0 0 0 0 0 0 0 0 0 0 0 0 -3 -9 -3 -45 -41 -17 -6
0 0 0 0 0 0 0 0 0 0 0 0 0 0 0 0 0 0 0 0 0 0 0 0 0 0 0 0 0 0 0 0 0 0 0 0 0 0 0 0 0 -20 -20 -1 0 0 -56 -40 -27
0 0 0 0 0 0 0 0 0 0 0 0 0 0 0 0 0 0 0 0 0 0 0 0 0 0 0 -1 0 0 0 0 0 0 0 0 0 0 0 0 -20 -25 -23 0 0 -35 -49 -68 -59
0 0 0 0 0 0 0 0 0 0 0 0 0 0 0 0 0 0 0 0 0 0 0 0 0 0 0 -1 0 0 0 0 0 0 0 0 0 0 0 0 -14 -25 -23 0 0 -64 -28 -38 -70
0 0 0 0 0 0 0 0 0 0 0 0 0 0 0 0 0 0 0 0 0 0 0 0 0 0 0 0 0 0 0 0 0 0 0 0 0 0 -105 -78 -106 -40 0 -19 -44 -37 -44 -39 -40
0 0 0 0 0 0 0 0 0 0 0 0 0 0 0 0 0 0 0 0 0 0 0 0 0 0 0 0 0 0 0 0 0 0 0 0 0 0 0 -67 -38 -44 -25 -18 -22 -30 -37 -55 -43
0 0 0 0 0 0 0 0 0 0 0 0 0 0 0 0 0 0 0 0 0 0 0 0 0 0 0 0 0 0 0 0 0 0 0 0 0 0 0 0 0 0 0 -73 -73 -48 -65 -51 -33
0 0 0 0 0 0 0 0 0 0 0 0 0 0 0 0 0 0 0 0 0 0 0 0 0 0 0 0 0 0 0 0 0 0 0 0 0 0 0 0 0 0 0 0 0 0 0 0 0
0 0 0 0 0 0 0 0 0 0 0 0 0 0 0 0 0 0 0 0 0 0 0 0 0 0 0 0 0 0 0 0 0 0 0 0 0 0 0 0 0 0 0 0 0 0 0 0 0
Wind_Speed
14 12 11 12 15 16 14 13 13 10 11 13 11 11 9 13 13 14 13 16 19 17 10 10 10 10 10 10 11 11 12 13 14 14 15 14 14 14 15 15 13 14 14 16 17 17 16 16 15
12 11 10 14 17 16 16 15 12 13 9 8 11 12 14 14 15 13 14 20 20 18 9 10 10 9 8 9 9 9 10 11 12 13 14 14 14 13 14 15 12 12 13 14 15 15 15 14 14
12 11 14 16 19 18 15 16 13 13 11 14 13 14 15 14 15 16 18 20 20 15 10 9 10 9 8 8 8 8 9 10 11 11 12 13 12 12 12 13 14 11 12 14 14 14 13 13 12
13 13 15 21 20 19 18 14 14 13 13 13 12 15 15 15 15 16 18 18 18 16 14 10 11 10 10 9 8 8 8 8 10 11 10 12 12 11 11 10 10 10 11 13 13 13 12 11 11
14 15 22 22 20 19 16 16 17 16 16 16 15 16 16 15 14 16 16 17 18 18 16 12 12 12 12 12 11 9 8 9 10 10 10 11 12 10 10 10 9 9 9 10 11 12 11 11 10
18 18 26 25 23 19 17 17 16 16 16 17 16 16 16 14 14 16 17 17 18 18 18 17 17 16 14 14 13 12 11 10 10 10 11 12 12 11 9 9 7 8 7 8 9 9 8 9 10
19 22 25 23 21 20 18 16 15 16 17 19 15 18 17 15 13 15 17 18 18 19 19 19 19 19 18 17 15 15 14 14 14 14 13 14 14 13 13 10 8 6 6 7 8 7 7 8 10
17 19 23 24 22 23 18 16 15 16 18 16 16 19 18 14 13 15 17 18 19 19 20 21 20 20 20 20 21 21 18 17 17 17 17 17 17 16 16 14 12 8 7 7 7 7 6 7 7
16 24 27 24 22 21 17 18 17 17 18 17 18 16 16 14 14 17 19 19 21 21 22 23 23 22 22 21 21 22 23 23 22 19 18 18 19 19 19 18 17 14 12 10 9 9 8 9 10
19 24 24 20 19 19 17 17 18 19 20 20 17 15 15 15 17 20 22 23 24 25 26 25 25 25 24 23 23 23 23 23 24 23 21 19 19 20 19 19 18 17 16 14 12 12 12 12 12
18 22 17 17 16 16 17 17 18 19 23 21 19 15 17 17 20 21 22 23 25 25 25 26 26 25 25 26 26 26 26 26 26 26 24 22 22 22 23 23 22 20 18 19 17 16 15 14 15
16 14 15 14 15 15 16 18 18 18 18 16 15 16 18 20 21 21 22 23 25 26 27 28 28 29 29 28 29 29 29 28 28 28 29 27 26 25 25 25 25 24 23 21 19 18 18 17 16
15 15 12 12 13 13 16 17 18 19 20 21 18 18 20 20 21 21 23 24 25 27 28 28 29 28 29 29 29 29 29 30 30 30 28 27 27 27 26 25 24 25 25 25 24 22 21 21 20
15 12 13 15 15 16 18 18 19 15 17 18 17 18 20 21 22 22 24 25 26 27 28 29 29 29 30 30 31 32 32 33 32 31 31 29 28 29 29 28 27 26 24 24 24 24 23 23 22
14 15 16 17 18 19 21 22 19 21 22 19 21 23 23 21 22 24 25 27 28 28 30 32 32 32 33 33 33 34 35 35 35 34 33 32 31 31 30 30 29 28 26 25 25 24 24 24 23
16 17 19 20 19 19 19 22 20 21 21 24 25 26 26 21 21 23 25 28 29 31 34 34 34 35 36 36 37 36 36 36 37 37 36 36 35 34 33 32 31 31 30 28 28 27 26 26 26
18 20 20 19 19 21 20 24 22 20 24 30 32 33 29 26 25 25 28 29 31 33 36 37 37 38 38 38 38 38 39 39 38 38 38 37 37 36 36 35 35 33 32 32 30 29 28 29 28
21 20 20 22 22 23 27 34 35 33 33 36 37 36 30 28 27 28 30 31 32 35 37 38 38 38 38 38 37 38 38 38 37 38 38 38 38 37 37 37 37 35 34 34 33 31 29 30 30
15 18 21 22 21 26 28 35 39 37 37 40 39 34 29 28 26 28 30 32 34 37 39 38 39 39 38 38 39 39 40 40 40 39 39 38 38 38 37 38 37 37 37 37 36 34 34 32 31
17 20 23 24 24 28 32 41 43 41 36 33 33 27 25 25 26 27 29 31 33 36 37 37 37 38 37 35 36 35 36 36 36 36 36 36 36 35 36 36 37 37 38 38 37 36 36 35 30
19 21 24 26 29 28 35 40 33 28 27 27 24 23 23 24 26 27 29 32 34 37 38 37 37 35 36 36 35 36 32 31 33 32 32 31 33 34 35 35 36 36 36 39 38 37 36 38 34
23 20 22 27 30 34 29 41 34 31 30 27 23 21 20 22 23 25 28 32 33 35 35 34 35 33 32 34 34 31 30 30 29 30 31 31 32 33 33 34 34 34 35 37 38 36 38 36 37
20 20 23 25 28 32 30 34 31 26 26 23 18 17 20 22 22 23 26 28 31 32 34 34 33 32 32 32 31 31 32 29 29 28 30 31 32 32 32 33 33 34 35 36 35 37 37 34 36
19 21 23 24 26 32 26 26 30 24 21 21 21 18 15 18 19 21 23 26 29 30 33 33 33 32 30 31 32 30 32 34 32 30 27 26 28 29 27 30 32 32 32 34 35 34 35 35 35
19 21 25 26 25 27 22 27 25 23 19 19 20 17 15 15 17 20 23 25 28 30 32 33 33 33 32 31 31 30 28 30 29 28 25 24 26 27 26 25 29 30 31 33 33 32 32 33 34
18 18 20 27 27 29 25 28 25 21 17 17 15 14 16 14 14 15 15 15 20 27 30 33 34 34 33 32 30 29 29 28 26 24 22 20 20 25 24 14 20 26 28 30 29 29 29 30 31
16 19 17 22 24 29 25 27 28 21 16 15 13 3 7 7 6 7 1 10 16 23 26 28 31 32 33 32 29 28 29 29 26 24 19 16 15 16 23 19 20 23 26 26 25 26 27 27 28
17 13 20 21 26 29 26 26 19 15 12 8 13 13 11 7 4 2 11 14 17 17 22 23 25 27 30 30 29 29 27 29 25 24 22 15 10 11 9 14 20 23 23 23 23 24 24 23 25
14 18 17 18 17 21 24 19 9 15 13 10 7 6 8 10 11 14 16 17 19 20 20 20 21 22 25 27 29 29 28 28 26 26 24 21 13 11 10 11 14 20 21 20 19 20 21 21 23
17 13 7 13 14 14 21 22 16 16 12 5 11 12 13 13 14 14 14 16 14 21 20 17 15 17 18 22 26 28 27 29 28 28 26 21 15 14 14 13 13 15 18 19 19 20 21 21 21
Wind_Direction
257 258 263 264 263 275 278 281 283 292 303 301 316 329 344 324 327 337 331 318 301 308 56 54 54 72 72 66 61 67 63 56 46 25 11 4 5 2 359 354 21 18 45 33 25 20 30 38 37
256 257 264 263 267 268 273 276 282 281 303 336 328 324 321 319 313 331 331 305 295 307 32 24 30 36 44 45 48 54 57 52 55 53 45 26 9 357 351 347 1 23 24 17 17 21 17 24 35
252 259 257 258 264 265 273 270 277 283 299 299 315 327 322 320 322 320 328 314 315 336 10 19 20 17 16 24 32 35 33 37 33 36 43 46 48 50 25 1 351 7 7 4 6 8 12 20 23
249 259 272 259 260 265 271 269 274 283 298 312 324 316 331 336 336 338 334 335 336 341 344 360 356 360 353 353 2 9 16 20 21 17 31 24 28 33 35 30 30 37 18 359 356 2 11 15 12
254 260 253 257 260 267 272 275 276 280 290 295 309 308 315 334 346 344 342 343 343 341 339 350 351 344 336 332 339 348 354 352 353 357 6 7 11 21 24 21 19 22 27 25 16 354 349 353 4
253 259 251 252 258 265 275 281 283 286 293 299 305 310 313 333 339 341 342 341 339 340 343 341 333 333 331 327 324 326 330 335 340 344 345 346 349 355 5 7 11 13 22 19 17 16 18 357 345
253 253 253 253 254 261 271 285 285 290 293 298 314 303 313 322 342 340 338 336 333 333 333 334 332 326 323 322 322 318 318 317 318 321 325 328 331 333 335 339 342 345 353 358 1 3 4 350 342
260 261 254 256 252 262 275 283 293 294 295 313 317 303 305 321 338 337 335 334 332 332 331 329 327 327 324 319 311 310 313 313 311 311 312 314 316 317 319 321 322 321 320 322 333 340 340 340 341
267 257 251 256 255 266 279 281 295 303 298 308 314 316 320 329 332 328 326 327 325 327 326 324 322 321 320 318 317 313 308 306 307 309 309 309 309 310 311 311 311 310 308 304 305 312 318 317 319
260 256 257 268 271 271 279 285 289 292 294 298 309 324 328 328 322 318 318 315 317 319 318 320 318 316 315 316 314 312 312 310 307 305 304 305 304 305 306 307 306 304 303 300 298 296 301 305 307
262 260 267 272 278 281 281 287 296 294 290 295 299 310 318 320 319 319 318 318 317 318 320 320 318 317 315 312 311 309 308 306 306 306 303 301 301 301 300 300 300 299 299 299 296 294 293 295 297
255 268 272 275 284 285 285 293 295 297 301 317 314 314 315 316 319 320 319 318 316 314 311 309 308 307 307 309 308 307 307 306 305 304 302 302 299 298 297 296 295 293 293 293 292 291 289 288 291
256 262 276 285 293 296 295 295 298 300 302 302 303 308 310 313 314 317 316 318 315 313 312 313 314 315 314 313 312 311 308 307 305 304 304 303 300 298 298 296 294 290 289 288 289 287 287 285 284
259 265 271 279 287 293 294 296 301 306 303 306 307 303 305 307 311 315 318 318 319 320 319 319 319 320 318 316 313 310 307 305 305 304 303 302 300 298 296 296 293 292 288 287 285 284 284 285 284
261 261 270 277 282 285 289 285 290 289 286 297 297 297 303 312 316 315 316 316 317 319 319 317 317 317 315 314 312 310 307 306 303 302 300 299 297 295 294 294 291 291 290 288 286 284 283 284 285
262 266 264 275 281 287 288 281 288 291 291 290 292 298 304 317 320 320 319 318 318 317 315 316 317 315 314 312 310 309 307 305 303 301 298 296 294 292 290 289 290 290 289 287 285 284 282 283 283
262 260 264 276 285 285 286 282 289 297 294 288 288 293 304 310 314 317 317 317 319 319 317 316 316 315 313 312 310 307 305 303 302 301 299 296 293 290 288 286 285 287 286 286 284 282 281 284 282
256 264 271 273 285 286 281 274 275 283 289 287 289 295 303 308 311 316 317 320 321 321 320 319 318 317 316 315 313 311 309 306 304 301 299 297 294 289 285 285 283 283 283 282 282 280 281 282 284
272 271 274 281 290 290 286 281 277 286 290 288 293 299 303 306 313 317 320 321 322 321 320 320 318 316 316 316 315 313 311 309 305 302 298 297 295 292 286 284 284 280 278 279 280 278 280 282 282
278 277 279 286 292 293 291 282 281 288 295 300 301 304 307 311 315 319 322 324 324 323 322 320 320 320 319 320 320 318 317 317 313 308 303 298 295 293 289 285 284 282 278 277 278 276 277 278 279
282 282 284 286 293 297 295 289 296 303 306 308 310 312 313 314 317 322 325 326 325 324 323 321 321 322 323 323 324 324 328 329 326 321 314 307 300 296 291 287 286 284 280 277 276 275 274 275 279
279 293 295 294 295 289 305 290 297 304 303 305 308 312 316 320 323 325 327 330 329 330 330 329 326 326 326 323 326 335 336 335 335 330 324 318 309 302 294 289 287 285 283 281 277 276 274 274 276
292 298 299 300 299 298 301 296 301 311 309 312 315 314 317 321 325 327 330 333 336 337 336 334 330 321 324 326 329 334 336 337 337 336 332 327 318 309 301 294 289 286 283 282 281 276 274 274 276
299 299 302 303 302 293 303 302 305 312 316 320 324 324 324 328 332 333 334 336 337 339 336 336 331 327 330 329 330 335 336 335 339 342 343 341 331 325 319 304 292 288 287 285 284 282 276 272 274
300 301 296 296 297 297 312 305 307 315 316 323 325 332 336 335 336 336 335 334 335 334 332 332 336 334 332 330 334 335 344 342 347 349 352 353 345 336 328 324 303 291 289 288 286 284 283 277 272
302 304 299 295 298 302 313 305 316 325 322 326 328 329 337 342 349 352 356 358 350 341 340 333 336 338 341 332 335 340 343 345 350 356 358 1 360 346 343 352 326 304 298 293 291 288 287 283 278
304 303 313 309 310 307 311 315 316 316 312 319 329 8 179 181 194 210 221 6 357 350 349 346 342 342 343 341 342 341 346 346 354 356 4 7 10 9 346 357 338 318 306 302 299 296 292 288 283
306 322 309 312 308 309 315 318 323 345 354 81 166 185 198 201 213 321 350 350 349 353 350 351 352 354 347 347 350 351 351 346 1 3 7 18 19 21 27 6 347 328 322 314 308 305 303 297 290
311 308 316 320 319 317 320 333 196 173 133 108 95 53 15 358 345 339 336 337 339 342 346 351 354 359 358 356 349 357 2 351 359 358 3 15 31 36 40 35 14 345 341 330 326 321 317 311 301
297 323 357 329 334 330 299 244 197 175 144 62 10 5 3 356 349 343 334 332 337 332 339 349 357 2 9 6 353 357 5 2 8 3 3 17 30 38 49 53 43 22 359 342 334 327 322 319 315